DateTime,F1_A11,F1_S11,BsB_S11,BsG_S11,BsR_S11,BbsB_S11,BbsG_S11,BbsR_S11,BaB_A11,BaG_A11,BaR_A11,T_S11,U_S11,P_S11,T1_A11
2016-08-30T00:00:00Z,0000388,20000608,,,,,,,,,,27.0,03.6,0664.5,34.8
2016-08-30T00:01:00Z,0000388,20000608,,,,,,,,,,27.0,03.6,0664.5,34.8
2016-08-30T00:02:00Z,0000388,20000608,,,,,,,,,,27.0,03.6,0664.5,34.8
2016-08-30T00:03:00Z,0000388,60000608,,,,,,,,,,27.1,03.6,0664.5,34.8
2016-08-30T00:04:00Z,0000388,40000608,-000.02,0000.05,-000.02,0000.72,0000.22,0000.72,0000.03,-000.01,-000.03,27.3,03.7,0665.4,34.8
2016-08-30T00:05:00Z,0000388,00000608,0000.62,0000.28,0000.13,0000.53,0000.08,0000.26,0000.08,0000.06,0000.15,27.3,03.6,0665.5,34.8
2016-08-30T00:06:00Z,0000388,00000608,-000.22,0000.23,-000.16,0000.29,0000.16,0000.10,0000.04,-000.04,-000.09,27.3,03.6,0665.5,34.8
2016-08-30T00:07:00Z,0000388,00000608,-000.10,-000.51,0000.33,0000.05,0000.08,0000.21,0000.09,0000.12,0000.04,27.3,03.7,0665.5,34.8
2016-08-30T00:08:00Z,0000388,00000608,0000.65,-000.04,0000.35,-000.03,0000.06,0000.38,-000.28,0000.07,-000.17,27.3,03.7,0665.5,34.8
2016-08-30T00:09:00Z,0000388,00000608,0000.31,-000.19,0000.49,0000.59,-000.08,0000.05,0000.17,-000.03,0000.22,27.3,03.7,0665.5,34.8
2016-08-30T00:10:00Z,0000388,00000608,0000.43,-000.52,0000.36,-000.33,-000.24,0000.08,0000.09,0000.28,0000.16,27.3,03.7,0665.5,34.8
2016-08-30T00:11:00Z,0000388,00000608,-000.43,0000.19,0000.49,0000.24,-000.06,0000.26,0000.12,-000.10,0000.13,27.3,03.6,0665.5,34.8
2016-08-30T00:12:00Z,0000388,00000608,0000.00,0000.53,-000.02,0000.11,-000.14,0000.02,-000.04,0000.02,0000.08,27.3,03.6,0665.5,34.8
2016-08-30T00:13:00Z,0000388,00000608,-000.23,0000.46,0000.48,0000.16,0000.11,-000.06,0000.00,0000.21,-000.16,27.3,03.7,0665.5,34.8
2016-08-30T00:14:00Z,0000388,00000608,0000.52,0000.55,0000.04,0000.49,0000.30,0000.00,-000.02,-000.07,-000.18,27.3,03.6,0665.5,34.8
2016-08-30T00:15:00Z,0000388,00000608,0000.34,0000.22,0000.16,0000.32,0000.19,0000.38,0000.15,0000.12,0000.17,27.3,03.7,0665.5,34.9
2016-08-30T00:16:00Z,0000388,00000608,0000.57,0000.02,0000.41,-000.49,0000.22,0000.30,0000.05,-000.20,-000.03,27.3,03.7,0665.5,34.9
2016-08-30T00:17:00Z,0000388,00000608,0000.83,0000.07,0000.12,0000.35,0000.40,0000.03,0000.01,0000.25,0000.16,27.4,03.6,0665.5,34.9
2016-08-30T00:18:00Z,0000388,00000608,0000.62,0000.36,0000.45,0000.13,-000.08,0000.29,-000.18,-000.06,-000.29,27.4,03.6,0665.4,34.9
2016-08-30T00:19:00Z,0000388,00000608,0000.59,0000.03,0000.04,-000.10,-000.35,0000.29,0000.08,-000.17,0000.42,27.4,03.6,0665.5,34.9
2016-08-30T00:20:00Z,0000388,00000608,-000.15,-000.02,-000.09,0000.13,0000.19,0000.05,0000.17,0000.11,-000.01,27.5,03.6,0665.5,34.9
2016-08-30T00:21:00Z,0000388,00000608,0000.14,0000.39,-000.14,-000.05,-000.21,0000.40,0000.03,0000.21,0000.01,27.5,03.6,0665.5,34.9
2016-08-30T00:22:00Z,0000388,00000608,0000.63,0000.21,0000.41,-000.49,0000.38,0000.53,0000.06,-000.07,0000.04,27.5,03.6,0665.4,34.9
2016-08-30T00:23:00Z,0000388,00000608,0000.33,0000.49,0000.08,-000.27,-000.08,-000.08,0000.07,0000.02,-000.38,27.5,03.7,0665.5,34.9
2016-08-30T00:24:00Z,0000388,00000608,0000.47,0000.44,0000.13,0000.03,0000.17,0000.62,0000.22,0000.12,0000.38,27.5,03.6,0665.4,34.9
2016-08-30T00:25:00Z,0000388,00000608,0000.66,-000.05,0000.43,0000.22,-000.19,0000.14,-000.07,-000.12,0000.05,27.5,03.6,0665.4,34.9
2016-08-30T00:26:00Z,0000388,00000608,0000.31,0000.13,-000.19,0000.40,-000.25,0000.03,-000.10,0000.09,0000.23,27.5,03.6,0665.4,34.9
2016-08-30T00:27:00Z,0000388,00000608,-000.21,-000.31,0000.16,0000.27,0000.25,0000.14,-000.07,0000.07,-000.26,27.5,03.6,0665.4,34.9
2016-08-30T00:28:00Z,0000388,00000608,0000.34,0000.05,0000.32,-000.06,0000.14,0000.43,0000.30,0000.02,0000.47,27.5,03.6,0665.4,34.9
2016-08-30T00:29:00Z,0000388,00000608,-000.14,0000.06,0000.80,-000.26,-000.06,0000.22,-000.25,0000.08,-000.50,27.6,03.5,0665.4,34.9
2016-08-30T00:30:00Z,0000388,00000608,0000.50,0000.09,0000.15,0000.00,0000.02,0000.19,0000.03,-000.12,0000.13,27.6,03.5,0665.5,34.9
2016-08-30T00:31:00Z,0000388,00000608,0000.41,0000.00,0000.20,-000.08,-000.21,0000.21,0000.24,0000.27,0000.27,27.6,03.5,0665.4,34.9
2016-08-30T00:32:00Z,0000388,00000608,0000.73,0000.57,-000.02,0000.24,-000.08,0000.19,-000.13,-000.02,0000.02,27.7,03.6,0665.4,34.9
2016-08-30T00:33:00Z,0000388,00000608,-000.61,0000.14,-000.08,-000.02,0000.05,0000.42,0000.03,0000.04,-000.04,27.7,03.5,0665.4,34.9
2016-08-30T00:34:00Z,0000388,00000608,-000.07,0000.93,0000.28,0000.06,-000.08,0000.32,0000.07,-000.13,0000.31,27.7,03.5,0665.5,34.9
2016-08-30T00:35:00Z,0000388,00000608,0000.11,0000.07,-000.09,0000.57,-000.16,0000.27,0000.20,0000.13,-000.44,27.7,03.5,0665.5,34.9
2016-08-30T00:36:00Z,0000388,00000608,0000.34,0000.17,0000.26,0000.32,-000.27,0000.16,-000.06,-000.09,0000.06,27.7,03.5,0665.5,34.9
2016-08-30T00:37:00Z,0000388,00000608,0000.14,0000.00,-000.44,-000.13,0000.22,-000.06,0000.01,0000.06,-000.07,27.8,03.5,0665.5,34.9
2016-08-30T00:38:00Z,0000388,00000608,0000.53,0000.24,0000.02,0000.27,-000.22,0000.02,0000.07,0000.15,-000.11,27.8,03.4,0665.5,34.9
2016-08-30T00:39:00Z,0000388,00000608,0001.20,0000.67,0000.15,0000.80,-000.37,0000.22,0000.08,-000.06,0000.41,27.8,03.5,0665.5,34.9
2016-08-30T00:40:00Z,0000388,00000608,0000.66,0000.22,0000.14,0000.72,-000.25,0000.61,-000.21,-000.02,-000.41,27.8,03.6,0665.6,34.9
2016-08-30T00:41:00Z,0000388,00000608,0000.99,0000.05,0000.63,0000.14,0000.13,0000.03,0000.02,0000.06,0000.43,27.8,03.5,0665.5,34.9
2016-08-30T00:42:00Z,0000388,00000608,0000.21,-000.80,-000.05,0000.18,-000.05,0000.35,0000.17,-000.00,-000.16,27.8,03.4,0665.6,34.9
2016-08-30T00:43:00Z,0000388,00000608,0000.00,0000.14,-000.25,0000.08,-000.13,-000.32,-000.03,0000.08,0000.29,27.8,03.5,0665.5,34.9
2016-08-30T00:44:00Z,0000388,00000608,0000.98,-000.23,0000.08,0000.10,-000.11,0000.56,-000.07,0000.20,-000.13,27.8,03.4,0665.6,34.9
2016-08-30T00:45:00Z,0000388,00000608,-000.07,0000.42,0000.04,0000.37,0000.17,0000.16,0000.06,-000.12,-000.02,27.8,03.4,0665.6,34.9
2016-08-30T00:46:00Z,0000388,00000608,0000.68,0000.21,-000.06,0000.18,-000.17,0000.14,0000.21,0000.13,0000.10,27.8,03.4,0665.6,34.9
2016-08-30T00:47:00Z,0000388,00000608,0000.52,-000.06,0000.05,-000.08,0000.19,-000.37,-000.17,-000.06,-000.11,27.8,03.5,0665.5,34.9
2016-08-30T00:48:00Z,0000388,00000608,-000.48,0000.18,0000.32,0000.22,-000.19,0000.30,0000.16,0000.02,0000.14,27.8,03.3,0665.5,34.9
2016-08-30T00:49:00Z,0000388,00000608,0000.39,0000.60,0000.28,0000.26,-000.05,0000.11,-000.00,0000.15,-000.33,27.8,03.5,0665.5,34.9
2016-08-30T00:50:00Z,0000388,00000608,-000.06,0000.18,-000.55,-000.21,0000.30,-000.26,0000.17,0000.01,0000.43,27.8,03.4,0665.5,34.9
2016-08-30T00:51:00Z,0000388,00000608,-000.10,-000.10,0000.17,0000.41,0000.29,0000.30,-000.13,-000.09,-000.18,27.8,03.4,0665.6,34.9
2016-08-30T00:52:00Z,0000388,00000608,-000.07,0000.16,0000.37,0001.00,0000.10,0000.19,0000.33,0000.23,0000.39,27.8,03.4,0665.6,34.9
2016-08-30T00:53:00Z,0000388,00000608,0000.29,-000.12,0000.32,0000.41,-000.41,0000.30,-000.12,-000.19,-000.34,27.8,03.4,0665.6,34.9
2016-08-30T00:54:00Z,0000388,00000608,0000.36,0000.13,0000.00,-000.24,-000.02,-000.19,0000.06,0000.19,0000.06,27.8,03.3,0665.6,34.9
2016-08-30T00:55:00Z,0000388,00000608,0000.75,0000.71,0000.21,0000.06,0000.46,0000.43,-000.01,-000.10,-000.12,27.8,03.4,0665.6,34.9
2016-08-30T00:56:00Z,0000388,00000608,0000.23,-000.11,0000.49,0000.18,0000.35,0000.24,0000.10,0000.10,0000.47,27.8,03.5,0665.6,34.9
2016-08-30T00:57:00Z,0000388,40000608,,,,,,,,,,,,0665.5,34.9
2016-08-30T00:58:00Z,0000388,60000608,,,,,,,,,,27.8,03.5,0664.6,34.9
2016-08-30T00:59:00Z,0000388,20000608,,,,,,,,,,27.8,03.4,0664.6,34.9
2016-08-30T01:00:00Z,0000388,20000608,,,,,,,,,,27.8,03.4,0664.6,34.9
2016-08-30T01:01:00Z,0000388,20000608,,,,,,,,,,27.8,03.4,0664.6,34.9
2016-08-30T01:02:00Z,0000388,20000608,,,,,,,,,,27.8,03.4,0664.6,34.9
2016-08-30T01:03:00Z,0000388,60000608,,,,,,,,,,27.8,03.4,0664.6,34.9
2016-08-30T01:04:00Z,0000388,40000608,0001.04,0000.62,0000.10,0000.69,0000.16,-000.32,0000.06,0000.15,0000.08,27.9,03.4,0665.5,34.9
2016-08-30T01:05:00Z,0000388,00000608,-000.60,0000.23,0000.06,0000.51,-000.62,0000.16,-000.08,-000.03,-000.12,27.9,03.4,0665.6,34.9
2016-08-30T01:06:00Z,0000388,00000608,-000.85,0000.16,0000.50,0000.24,-000.05,0000.45,0000.17,-000.09,-000.20,27.9,03.4,0665.6,34.9
2016-08-30T01:07:00Z,0000388,00000608,-001.01,-000.17,0000.13,0000.27,-000.37,0000.03,0000.07,0000.07,0000.24,27.8,03.4,0665.5,34.9
2016-08-30T01:08:00Z,0000388,00000608,-001.22,-000.33,0000.48,-000.13,0000.24,0000.67,0000.09,-000.03,0000.04,27.8,03.4,0665.6,34.9
2016-08-30T01:09:00Z,0000388,00000608,0000.60,-000.17,0000.00,0000.19,-000.21,0000.30,0000.02,-000.00,0000.15,27.9,03.4,0665.5,34.9
2016-08-30T01:10:00Z,0000388,00000608,0000.39,-000.12,0000.88,0000.30,-000.10,0000.48,0000.23,0000.24,-000.05,27.9,03.3,0665.5,34.9
2016-08-30T01:11:00Z,0000388,00000608,-001.16,-000.04,0000.48,0000.40,-000.29,0000.81,-000.01,-000.10,0000.02,27.9,03.3,0665.5,34.9
2016-08-30T01:12:00Z,0000388,00000608,-000.31,0000.20,-000.61,0000.78,0000.06,0000.22,-000.06,0000.02,-000.03,27.9,03.4,0665.5,34.9
2016-08-30T01:13:00Z,0000388,00000608,-000.55,-000.16,0000.97,0000.40,0000.24,0000.18,-000.03,0000.10,0000.15,27.9,03.4,0665.5,34.9
2016-08-30T01:14:00Z,0000388,00000608,-000.88,-000.23,0000.79,0000.22,-000.06,0000.45,0000.22,-000.02,-000.02,27.9,03.4,0665.5,34.9
2016-08-30T01:15:00Z,0000388,00000608,-000.28,0000.39,0000.44,0000.49,0000.11,0000.42,0000.11,-000.02,-000.23,27.9,03.4,0665.5,34.9
2016-08-30T01:16:00Z,0000388,00000608,-000.64,0000.26,-000.02,0000.11,-000.08,-000.02,-000.04,0000.23,0000.29,27.9,03.4,0665.5,34.9
2016-08-30T01:17:00Z,0000388,00000608,0000.26,0000.62,0000.61,0000.86,-000.25,0000.24,-000.10,-000.28,-000.22,27.9,03.4,0665.5,34.9
2016-08-30T01:18:00Z,0000388,00000608,-000.88,0000.41,0000.44,0000.83,0000.06,0000.08,0000.30,0000.26,-000.03,27.9,03.3,0665.4,34.9
2016-08-30T01:19:00Z,0000388,00000608,0000.13,0000.07,0000.78,0000.65,0000.16,0000.54,-000.14,-000.13,0000.02,27.9,03.4,0665.4,34.9
2016-08-30T01:20:00Z,0000388,00000608,-000.18,-000.27,0000.74,0000.27,-000.03,0000.29,0000.03,0000.09,-000.03,27.9,03.5,0665.4,34.9
2016-08-30T01:21:00Z,0000388,00000608,0000.58,0000.15,0000.60,0000.51,0000.11,0000.30,0000.23,0000.03,0000.20,27.8,03.4,0665.4,34.9
2016-08-30T01:22:00Z,0000388,00000608,0000.47,-000.31,0000.40,0000.11,-000.02,0000.35,-000.01,0000.15,0000.08,27.8,03.4,0665.4,34.9
2016-08-30T01:23:00Z,0000388,00000608,-000.08,0000.24,0000.79,0000.75,0000.17,0000.18,-000.08,0000.10,0000.03,27.8,03.4,0665.2,34.9
2016-08-30T01:24:00Z,0000388,00000608,0000.29,-000.51,0000.72,-000.11,-000.33,0000.27,0000.09,-000.20,-000.12,27.8,03.4,0665.3,34.9
2016-08-30T01:25:00Z,0000388,00000608,0000.15,-000.52,0000.04,-000.14,0000.46,-000.11,0000.08,0000.20,0000.08,27.8,03.4,0665.3,34.9
2016-08-30T01:26:00Z,0000388,00000608,0000.60,0000.47,0000.02,0000.62,0000.22,0000.21,0000.06,0000.03,0000.14,27.8,03.3,0665.4,34.9
2016-08-30T01:27:00Z,0000388,00000608,-001.20,0000.33,-000.06,0000.19,-000.16,0000.03,-000.04,-000.13,-000.14,27.8,03.3,0665.3,34.9
2016-08-30T01:28:00Z,0000388,00000608,0000.49,-000.14,0000.65,0000.34,-000.40,0000.32,-000.06,-000.10,-000.07,27.8,03.3,0665.3,34.9
2016-08-30T01:29:00Z,0000388,00000608,0000.73,-000.43,0000.07,0000.08,0000.05,0000.03,0000.19,0000.10,0000.37,27.8,03.4,0665.4,34.9
2016-08-30T01:30:00Z,0000388,00000608,0000.06,-000.26,-000.07,0000.40,0000.29,0000.18,-000.16,0000.01,-000.31,27.8,03.4,0665.4,34.9
2016-08-30T01:31:00Z,0000388,00000608,-000.62,0000.20,0000.77,0000.45,-000.54,0000.54,0000.03,-000.06,0000.04,27.7,03.4,0665.3,34.9
2016-08-30T01:32:00Z,0000388,00000608,-000.65,0000.46,0000.83,0000.94,0000.05,0000.19,0000.19,0000.28,-000.02,27.7,03.4,0665.4,34.9
2016-08-30T01:33:00Z,0000388,00000608,0000.81,-000.40,0000.34,0000.64,0000.41,-000.06,0000.01,-000.16,0000.11,27.7,03.4,0665.4,34.9
2016-08-30T01:34:00Z,0000388,00000608,0001.04,0000.09,0000.15,0001.00,-000.10,0000.24,0000.09,0000.08,-000.13,27.7,03.4,0665.4,34.9
2016-08-30T01:35:00Z,0000388,00000608,-000.87,-000.04,0000.33,0000.27,-000.32,-000.08,-000.01,-000.01,-000.00,27.7,03.4,0665.4,34.9
2016-08-30T01:36:00Z,0000388,00000608,-000.59,-000.09,0000.49,-000.22,0000.29,0000.46,0000.17,0000.28,0000.35,27.6,03.4,0665.4,34.9
2016-08-30T01:37:00Z,0000388,00000608,0000.07,-000.09,0000.47,0000.56,-000.06,-000.19,-000.01,-000.16,-000.21,27.6,03.4,0665.4,34.9
2016-08-30T01:38:00Z,0000388,00000608,-000.91,0000.78,0001.04,0000.51,0000.29,0000.29,-000.05,-000.03,0000.47,27.6,03.4,0665.3,34.9
2016-08-30T01:39:00Z,0000388,00000608,0000.76,-000.30,-000.42,0000.69,-000.21,0000.59,-000.06,0000.02,-000.18,27.6,03.4,0665.4,34.9
2016-08-30T01:40:00Z,0000388,00000608,-000.39,-000.52,-000.23,0000.00,0000.16,-000.27,0000.12,0000.07,-000.11,27.6,03.4,0665.4,34.9
2016-08-30T01:41:00Z,0000388,00000608,0000.45,-000.04,0000.55,-000.24,-000.13,0000.22,-000.10,0000.05,0000.07,27.6,03.4,0665.4,34.9
2016-08-30T01:42:00Z,0000388,00000608,0001.15,-000.25,0000.41,0000.51,-000.06,0000.18,-000.06,0000.10,0000.12,27.5,03.4,0665.4,34.9
2016-08-30T01:43:00Z,0000388,00000608,-000.17,0000.29,-000.11,0000.03,0000.21,-000.11,0000.33,0000.11,-000.31,27.5,03.4,0665.4,34.9
2016-08-30T01:44:00Z,0000388,00000608,0000.16,-000.10,0000.78,0000.18,-000.11,0000.29,0000.02,-000.06,0000.32,27.5,03.4,0665.3,34.9
2016-08-30T01:45:00Z,0000388,00000608,0000.54,-000.14,0000.56,0001.07,-000.48,0000.34,-000.10,0000.17,0000.03,27.5,03.4,0665.3,34.8
2016-08-30T01:46:00Z,0000388,00000608,0000.83,0000.06,0000.76,0000.43,0000.00,0000.70,0000.13,-000.04,-000.20,27.5,03.3,0665.3,34.8
2016-08-30T01:47:00Z,0000388,00000608,-000.32,0000.17,0000.34,0000.33,-000.16,0000.45,0000.17,-000.02,0000.19,27.5,03.3,0665.4,34.8
2016-08-30T01:48:00Z,0000388,00000608,0000.65,0000.22,0001.17,0001.05,0000.21,0000.24,-000.10,-000.01,0000.00,27.5,03.4,0665.4,34.8
2016-08-30T01:49:00Z,0000388,00000608,0000.29,0000.00,0001.07,0000.13,-000.30,0000.38,0000.06,0000.15,-000.03,27.5,03.3,0665.4,34.8
2016-08-30T01:50:00Z,0000388,00000608,0000.59,0000.29,0000.73,0000.16,-000.13,0000.27,0000.35,0000.00,0000.07,27.5,03.3,0665.4,34.8
2016-08-30T01:51:00Z,0000388,00000608,0000.20,0000.44,-000.02,0000.30,0000.49,-000.14,-000.25,-000.11,0000.14,27.5,03.4,0665.4,34.8
2016-08-30T01:52:00Z,0000388,00000608,-001.22,0000.67,-000.24,0000.69,0000.40,0000.40,0000.05,0000.20,-000.18,27.5,03.3,0665.5,34.8
2016-08-30T01:53:00Z,0000388,00000608,-000.38,0000.32,0000.33,0000.30,-000.22,0000.34,-000.05,0000.03,-000.07,27.5,03.3,0665.5,34.8
2016-08-30T01:54:00Z,0000388,00000608,0001.46,-000.09,-000.04,0000.41,0000.54,0000.03,0000.02,-000.15,-000.04,27.5,03.3,0665.4,34.8
2016-08-30T01:55:00Z,0000388,00000608,-001.24,0000.15,0000.60,0000.45,-000.06,0000.45,-000.00,-000.03,0000.34,27.5,03.3,0665.4,34.8
2016-08-30T01:56:00Z,0000388,00000608,0000.37,-000.80,0000.52,0000.40,-000.19,-000.02,0000.09,-000.03,-000.32,27.5,03.3,0665.4,34.8
2016-08-30T01:57:00Z,0000388,40000608,,,,,,,,,,,,0665.5,34.8
2016-08-30T01:58:00Z,0000388,60000608,,,,,,,,,,27.5,03.2,0664.5,34.8
2016-08-30T01:59:00Z,0000388,20000608,,,,,,,,,,27.5,03.2,0664.4,34.8
2016-08-30T02:00:00Z,0000388,20000608,,,,,,,,,,27.5,03.2,0664.4,34.8
2016-08-30T02:01:00Z,0000388,20000608,,,,,,,,,,27.5,03.2,0664.4,34.8
2016-08-30T02:02:00Z,0000388,20000608,,,,,,,,,,27.5,03.2,0664.4,34.8
2016-08-30T02:03:00Z,0000388,60000608,,,,,,,,,,27.5,03.2,0664.4,34.8
2016-08-30T02:04:00Z,0000388,40000608,0000.99,-000.16,0000.15,0000.30,-000.29,0000.51,0000.08,-000.06,-000.12,27.5,03.1,0665.4,34.8
2016-08-30T02:05:00Z,0000388,00000608,0001.45,-000.50,0000.40,-000.11,-000.02,0000.13,-000.01,-000.04,0000.04,27.5,03.2,0665.5,34.8
2016-08-30T02:06:00Z,0000388,00000608,0000.91,0000.13,0000.18,-000.53,0000.21,0000.16,-000.02,-000.01,0000.15,27.5,03.2,0665.5,34.8
2016-08-30T02:07:00Z,0000388,00000608,0001.27,-000.03,0000.58,-000.38,-000.24,0000.11,-000.18,0000.08,0000.03,27.5,03.2,0665.5,34.8
2016-08-30T02:08:00Z,0000388,00000608,0001.23,-000.14,0000.47,-000.43,0000.22,0000.05,0000.24,0000.06,0000.28,27.5,03.1,0665.5,34.8
2016-08-30T02:09:00Z,0000388,00000608,-000.34,0000.30,0000.95,0000.35,0000.00,-000.08,-000.03,-000.01,-000.01,27.6,03.2,0665.5,34.8
2016-08-30T02:10:00Z,0000388,00000608,-000.17,0000.27,0000.43,0000.46,0000.06,0000.19,-000.10,0000.08,-000.29,27.6,03.2,0665.5,34.8
2016-08-30T02:11:00Z,0000388,00000608,0000.91,-000.55,-000.04,-000.37,0000.00,0000.19,0000.01,0000.07,0000.01,27.6,03.2,0665.5,34.8
2016-08-30T02:12:00Z,0000388,00000608,0000.74,0000.20,0000.32,0000.11,0000.16,0000.43,0000.13,0000.03,0000.25,27.6,03.1,0665.5,34.8
2016-08-30T02:13:00Z,0000388,00000608,0000.91,0000.45,0000.45,0000.41,-000.06,-000.14,-000.03,-000.05,-000.08,27.6,03.2,0665.5,34.8
2016-08-30T02:14:00Z,0000388,00000608,0000.58,0000.24,0000.70,0000.11,-000.24,0000.34,-000.14,0000.23,0000.10,27.6,03.2,0665.5,34.8
2016-08-30T02:15:00Z,0000388,00000608,0000.04,-000.02,0000.77,-000.06,0000.16,0000.32,0000.16,-000.02,-000.26,27.6,03.1,0665.5,34.9
2016-08-30T02:16:00Z,0000388,00000608,0000.41,0000.15,0000.28,-000.35,-000.49,0000.35,0000.12,0000.02,0000.31,27.7,03.1,0665.5,34.9
2016-08-30T02:17:00Z,0000388,00000608,0000.45,0000.13,0000.13,-000.27,0000.06,0000.06,-000.08,-000.13,-000.07,27.7,03.1,0665.5,34.9
2016-08-30T02:18:00Z,0000388,00000608,0001.01,0000.44,0000.12,0000.73,-000.03,-000.22,0000.09,0000.19,0000.24,27.7,03.1,0665.5,34.9
2016-08-30T02:19:00Z,0000388,00000608,0000.92,0000.35,-000.04,0000.24,-000.06,-000.13,0000.02,0000.08,-000.31,27.7,03.1,0665.6,34.9
2016-08-30T02:20:00Z,0000388,00000608,0000.06,-000.23,0000.00,-000.33,0000.03,0000.00,-000.11,-000.09,0000.11,27.7,03.1,0665.5,34.9
2016-08-30T02:21:00Z,0000388,00000608,0000.48,0000.20,0000.11,-000.41,0000.06,-000.10,0000.08,0000.01,-000.02,27.7,03.1,0665.6,34.9
2016-08-30T02:22:00Z,0000388,00000608,-000.19,0000.40,0000.39,0000.16,-000.06,-000.03,0000.20,-000.06,-000.16,27.7,03.1,0665.6,34.9
2016-08-30T02:23:00Z,0000388,00000608,0000.32,0000.04,0000.27,-000.46,0000.17,-000.08,-000.10,-000.06,0000.32,27.7,03.1,0665.6,34.9
2016-08-30T02:24:00Z,0000388,00000608,0000.54,0000.14,0000.13,0000.41,-000.21,0000.02,0000.04,0000.29,0000.20,27.7,03.1,0665.6,34.9
2016-08-30T02:25:00Z,0000388,00000608,0000.50,-000.18,0000.24,-000.27,-000.38,0000.14,0000.21,-000.19,-000.08,27.7,03.0,0665.6,34.9
2016-08-30T02:26:00Z,0000388,00000608,0000.67,0000.00,0000.04,0000.40,-000.13,-000.21,-000.04,0000.13,-000.23,27.7,03.1,0665.6,34.9
2016-08-30T02:27:00Z,0000388,00000608,0000.80,0000.48,-000.11,0000.24,0000.27,0000.10,0000.08,0000.01,0000.15,27.7,03.0,0665.6,34.9
2016-08-30T02:28:00Z,0000388,00000608,-000.36,-000.19,0000.34,0000.53,-000.24,0000.30,-000.18,0000.12,0000.07,27.8,03.1,0665.6,34.9
2016-08-30T02:29:00Z,0000388,00000608,-000.38,0000.74,0000.16,0000.08,0000.30,0000.14,0000.10,-000.05,0000.11,27.8,03.0,0665.6,34.9
2016-08-30T02:30:00Z,0000388,00000608,0001.17,-000.08,0000.05,-000.10,0000.05,0000.16,-000.03,-000.07,-000.34,27.8,03.0,0665.7,34.9
2016-08-30T02:31:00Z,0000388,00000608,0000.45,0000.20,0000.22,-000.06,-000.06,-000.05,0000.09,0000.12,0000.08,27.7,03.0,0665.7,34.9
2016-08-30T02:32:00Z,0000388,00000608,0000.21,0000.23,0000.36,-000.61,0000.11,-000.06,-000.14,0000.03,0000.12,27.7,03.0,0665.7,34.9
2016-08-30T02:33:00Z,0000388,00000608,0001.14,-000.03,0000.36,0000.13,-000.08,0000.10,0000.01,0000.04,-000.11,27.8,03.0,0665.7,34.9
2016-08-30T02:34:00Z,0000388,00000608,0000.52,0000.67,0000.39,-000.05,0000.00,0000.02,0000.09,0000.08,0000.07,27.7,03.0,0665.7,34.9
2016-08-30T02:35:00Z,0000388,00000608,0001.24,0000.43,0000.20,0000.06,-000.02,0000.21,-000.04,-000.03,-000.11,27.7,03.0,0665.7,34.9
2016-08-30T02:36:00Z,0000388,00000608,0001.01,0000.17,0000.13,0000.41,-000.25,-000.02,0000.29,0000.12,0000.36,27.8,03.0,0665.7,34.9
2016-08-30T02:37:00Z,0000388,00000608,0000.67,0000.25,0000.12,0000.33,0000.11,-000.18,-000.19,-000.26,-000.23,27.7,03.0,0665.7,34.9
2016-08-30T02:38:00Z,0000388,00000608,-000.37,0000.25,0000.37,-000.11,-000.29,0000.16,0000.04,0000.05,-000.04,27.7,03.0,0665.7,34.9
2016-08-30T02:39:00Z,0000388,00000608,0000.53,0000.07,0000.21,0000.33,-000.21,-000.03,0000.07,0000.17,0000.17,27.7,03.1,0665.7,34.9
2016-08-30T02:40:00Z,0000388,00000608,0000.82,-000.25,0001.01,0001.43,-000.14,-000.14,0000.42,0000.33,0000.24,27.7,03.0,0665.7,34.9
2016-08-30T02:41:00Z,0000388,00000608,-000.04,0000.00,0000.93,0000.10,-000.03,0000.11,0000.15,0000.23,0000.09,27.7,03.0,0665.7,34.9
2016-08-30T02:42:00Z,0000388,00000608,0000.07,0000.69,0000.67,-000.03,-000.06,0000.24,-000.01,-000.02,0000.13,27.7,03.0,0665.6,34.9
2016-08-30T02:43:00Z,0000388,00000608,0000.75,-000.11,0000.13,-000.06,-000.75,0000.19,0000.09,-000.07,-000.08,27.7,03.0,0665.6,34.9
2016-08-30T02:44:00Z,0000388,00000608,0000.57,0000.00,0000.40,0000.24,-000.24,-000.22,0001.26,0001.17,0000.91,27.7,03.0,0665.6,34.9
2016-08-30T02:45:00Z,0000388,00000608,0001.14,0001.17,0000.63,0000.03,0000.32,0000.24,0006.40,0005.54,0004.42,27.7,03.1,0665.6,34.8
2016-08-30T02:46:00Z,0000388,00000608,0001.80,0001.21,0000.71,0000.43,0000.52,0000.32,0007.43,0006.29,0005.00,27.7,03.0,0665.6,34.8
2016-08-30T02:47:00Z,0000388,00000608,0001.52,0001.40,0000.92,0000.80,0000.30,0000.32,0007.82,0006.79,0004.98,27.6,02.9,0665.5,34.8
2016-08-30T02:48:00Z,0000388,00000608,0001.30,0001.34,0000.51,-000.13,0000.41,0000.18,0005.38,0004.75,0003.66,27.7,03.0,0665.5,34.8
2016-08-30T02:49:00Z,0000388,00000608,0002.49,0000.55,0000.55,0001.00,0000.08,0000.10,0003.61,0002.93,0002.38,27.7,03.0,0665.5,34.8
2016-08-30T02:50:00Z,0000388,00000608,0000.73,0000.59,0000.69,-000.19,-000.54,0000.46,0003.61,0003.20,0002.30,27.7,03.0,0665.5,34.8
2016-08-30T02:51:00Z,0000388,00000608,0000.97,0000.58,0000.49,0000.40,-000.40,0000.10,0001.29,0000.91,0000.88,27.6,03.0,0665.5,34.8
2016-08-30T02:52:00Z,0000388,00000608,0000.37,-000.33,0000.58,-000.11,0000.05,-000.02,0000.38,0000.46,0000.31,27.6,03.0,0665.5,34.8
2016-08-30T02:53:00Z,0000388,00000608,0000.61,-000.18,0000.62,-000.06,-000.17,0000.00,0000.14,0000.08,-000.19,27.6,03.0,0665.6,34.8
2016-08-30T02:54:00Z,0000388,00000608,0000.80,0000.93,0000.80,-000.21,-000.16,0000.49,0000.12,-000.00,0000.20,27.6,03.0,0665.6,34.8
2016-08-30T02:55:00Z,0000388,00000608,0000.02,0000.58,0000.28,0000.56,-000.37,-000.02,0000.07,0000.32,0000.03,27.6,03.0,0665.5,34.8
2016-08-30T02:56:00Z,0000388,00000608,0000.77,0000.40,-000.02,0000.48,-000.27,0000.11,-000.08,0000.01,0000.22,27.6,03.0,0665.6,34.8
2016-08-30T02:57:00Z,0000388,40000608,,,,,,,,,,,,0665.6,34.8
2016-08-30T02:58:00Z,0000388,60000608,,,,,,,,,,27.5,03.0,0664.6,34.8
2016-08-30T02:59:00Z,0000388,20000608,,,,,,,,,,27.5,02.9,0664.5,34.8
2016-08-30T03:00:00Z,0000388,20000608,,,,,,,,,,27.5,02.9,0664.5,34.8
2016-08-30T03:01:00Z,0000388,20000608,,,,,,,,,,27.5,02.9,0664.5,34.8
2016-08-30T03:02:00Z,0000388,20000608,,,,,,,,,,27.5,02.9,0664.6,34.8
2016-08-30T03:03:00Z,0000388,60000608,,,,,,,,,,27.5,02.9,0664.6,34.8
2016-08-30T03:04:00Z,0000388,40000608,0000.46,0000.33,0000.27,0000.06,-000.03,0000.24,0000.20,-000.15,0000.25,27.6,02.9,0665.5,34.8
2016-08-30T03:05:00Z,0000388,00000608,-000.09,0000.07,-000.25,-000.37,0000.19,-000.05,0000.07,0000.03,-000.16,27.6,03.0,0665.6,34.8
2016-08-30T03:06:00Z,0000388,00000608,0000.30,-000.52,0000.31,0000.25,-000.51,-000.03,0000.04,0000.21,-000.06,27.5,02.9,0665.5,34.8
2016-08-30T03:07:00Z,0000388,00000608,0000.56,-000.30,0000.10,0000.35,0000.30,0000.10,0000.10,-000.04,0000.25,27.5,02.9,0665.5,34.8
2016-08-30T03:08:00Z,0000388,00000608,0000.47,-000.40,-000.13,-000.32,-000.05,0000.05,-000.04,-000.10,0000.02,27.5,02.9,0665.5,34.8
2016-08-30T03:09:00Z,0000388,00000608,-001.39,0000.09,0001.18,0000.08,0000.62,0000.29,0000.10,0000.04,-000.18,27.5,02.8,0665.5,34.8
2016-08-30T03:10:00Z,0000388,00000608,-000.26,0000.73,0000.09,0000.38,-000.13,0000.16,-000.11,0000.18,0000.26,27.5,02.9,0665.5,34.8
2016-08-30T03:11:00Z,0000388,00000608,-000.08,0000.08,-000.26,-000.03,-000.30,0000.18,0000.06,-000.07,0000.03,27.5,02.9,0665.5,34.8
2016-08-30T03:12:00Z,0000388,00000608,-000.97,-000.25,0000.39,0000.16,-000.22,0000.43,0000.15,0000.11,-000.05,27.6,02.9,0665.6,34.8